Theta_e
303 302 302 302 302 300 299 298 298 298 297 298 299 299 302 304 306 307 310 311 312 313 317 321 321 320 319 315 315 316 315 316 316 314 315 314 314 315 316 317 318 318 318 319 320 321 321 322 323 323 323 322 322 323 321 320 321 322 322 322 324 329 329 322 319 324 326 325 327 326 324 324 323 323 325 324 324 324 322 327 333 328 324 328 325 321 338
303 302 302 302 302 301 300 299 298 298 298 298 299 301 304 305 307 309 312 314 314 314 317 322 325 326 322 319 319 318 317 318 318 317 316 316 315 315 315 315 317 318 319 319 320 322 321 322 323 322 323 324 323 324 324 322 322 322 323 326 325 324 327 324 319 320 321 322 323 322 321 323 324 327 326 323 326 327 326 331 331 325 326 329 325 324 340
303 302 302 302 302 302 301 300 299 298 298 298 300 304 306 307 310 312 312 314 314 314 315 316 320 323 320 319 321 320 320 320 319 319 319 317 317 317 316 316 316 318 319 320 321 322 321 322 324 326 327 328 328 329 328 326 322 320 324 328 323 324 329 326 319 319 319 319 321 323 325 327 328 330 326 324 327 325 326 329 323 322 329 330 328 332 341
302 302 302 302 302 302 301 301 300 298 298 298 300 305 307 309 314 315 313 313 313 312 312 311 314 317 317 320 323 321 321 322 321 320 320 320 318 317 317 318 317 318 318 319 320 322 322 322 325 329 329 329 332 330 328 329 325 324 329 329 328 333 333 326 322 322 321 321 327 334 336 328 323 326 325 325 326 324 329 329 323 329 334 330 339 346 336
301 302 302 302 302 301 301 301 301 299 298 298 301 307 308 310 314 314 313 315 314 312 311 310 312 314 315 320 323 321 321 324 323 322 322 322 319 318 318 318 318 319 319 318 319 321 322 322 324 326 325 330 335 330 328 331 329 333 336 329 331 336 327 324 328 325 322 325 329 334 334 325 322 325 324 325 326 324 326 325 327 338 331 325 349 359 334
301 302 302 302 302 301 301 302 301 299 298 298 302 307 310 312 314 312 311 314 315 313 312 311 312 313 314 318 320 320 321 322 322 321 320 320 320 320 321 319 318 319 319 319 320 322 323 324 325 327 329 336 338 332 331 331 328 332 335 329 331 332 324 324 328 324 324 326 325 328 330 327 327 327 325 325 326 324 323 324 330 339 328 322 346 358 339
300 301 301 301 301 301 302 302 301 301 298 298 303 306 308 310 311 310 310 312 312 311 311 312 313 313 314 318 320 320 320 320 319 317 317 321 323 321 324 325 321 321 323 322 324 325 326 324 327 332 335 337 336 333 332 332 328 329 333 333 330 326 330 334 326 321 325 324 322 326 326 326 326 326 327 327 326 325 324 325 330 333 330 329 342 351 344
301 301 301 301 301 301 302 302 301 301 300 299 301 305 305 306 307 308 308 309 310 310 311 312 313 311 313 320 322 318 318 319 317 315 317 322 325 323 327 329 325 325 328 327 326 327 327 327 329 335 335 334 336 336 335 334 331 330 333 335 328 323 335 343 328 320 324 323 324 325 322 324 324 322 326 326 323 326 323 323 331 331 329 334 339 343 343
302 302 302 302 302 301 301 301 301 301 301 300 300 302 303 304 306 307 307 308 310 311 311 311 312 312 314 319 318 315 316 317 314 315 316 317 321 323 324 325 324 325 330 331 328 324 325 326 327 328 329 329 333 337 335 331 332 335 336 335 334 330 336 339 327 319 322 323 324 324 322 323 321 319 324 324 322 325 323 325 335 334 331 336 336 335 338
302 302 302 302 303 302 300 300 301 301 302 302 300 299 301 303 305 306 307 309 310 311 311 310 310 313 315 315 313 312 314 313 313 317 318 316 318 320 319 320 324 327 331 331 325 320 321 322 322 322 324 325 327 329 329 328 328 335 338 336 338 336 333 335 329 322 324 325 322 324 322 318 319 322 323 322 324 327 325 326 334 336 335 336 332 331 336
303 302 302 302 302 302 301 301 301 302 302 303 301 300 300 301 303 305 306 308 309 308 311 312 311 311 311 311 310 310 312 311 312 316 318 316 316 316 316 318 322 327 329 324 320 319 321 322 322 321 320 323 325 325 327 328 326 328 333 335 339 338 335 336 331 324 327 330 325 324 320 317 326 338 333 325 325 325 325 329 336 341 343 342 340 340 343
303 303 303 303 302 302 302 302 302 302 302 303 302 301 300 300 302 305 307 308 309 308 309 311 310 309 309 309 310 310 310 311 312 313 313 313 313 314 315 318 323 326 324 320 319 322 324 324 325 323 322 324 329 330 331 333 329 325 327 330 335 338 336 336 332 326 329 330 324 320 321 327 340 346 337 331 326 324 331 338 342 344 345 347 350 349 347
303 303 303 303 303 303 302 302 302 302 303 303 303 302 301 299 301 304 306 307 308 308 308 309 308 309 309 309 309 310 310 311 311 312 312 313 313 314 317 321 322 319 317 318 320 323 331 336 332 328 331 334 334 336 335 332 328 327 327 328 330 333 335 337 335 329 325 324 321 321 329 340 343 339 337 338 333 331 336 337 336 339 341 347 356 356 353
303 303 303 303 303 303 303 302 302 303 303 303 303 303 302 300 300 303 305 307 308 308 309 309 309 309 309 309 310 310 310 311 311 311 312 312 314 316 319 319 316 314 317 320 320 324 335 342 336 331 336 337 333 335 337 332 328 330 333 332 331 333 336 336 331 328 331 330 326 328 333 335 337 339 339 337 334 334 338 338 335 336 336 340 352 357 351
303 303 302 303 303 303 303 303 303 303 303 303 304 303 302 301 301 302 304 306 307 308 309 308 309 310 310 310 310 309 309 310 310 310 311 313 315 317 316 313 313 317 321 322 324 330 335 335 331 329 332 332 330 332 337 336 333 333 334 335 334 333 337 338 328 328 338 336 329 330 330 329 340 348 339 333 333 332 335 338 335 335 335 334 341 347 346
302 302 302 302 302 303 304 303 303 303 303 304 304 303 302 301 301 303 305 306 307 308 309 308 309 310 310 309 309 309 310 311 310 310 314 316 316 315 312 312 316 321 324 326 329 335 334 332 332 333 334 335 333 332 335 337 340 341 337 336 337 338 342 344 336 332 335 334 332 337 336 334 344 350 339 333 332 331 333 334 332 335 336 331 334 340 340
302 302 302 302 302 303 303 303 303 303 303 303 303 304 303 301 301 302 304 305 307 308 308 307 308 309 309 309 309 309 310 310 309 312 316 316 315 313 311 312 318 321 325 334 338 336 332 331 332 335 337 337 332 330 334 336 338 342 341 341 349 356 353 346 340 339 339 339 339 340 339 337 340 341 336 333 331 331 332 331 333 338 335 329 330 335 334
301 302 302 302 302 303 303 303 303 303 303 304 303 304 304 302 301 302 304 305 306 307 308 308 308 309 309 309 309 310 310 309 309 311 313 314 316 314 310 312 319 320 323 333 340 338 335 332 329 329 335 336 331 330 335 336 337 343 347 344 346 355 354 344 342 344 344 341 338 336 338 340 338 335 333 330 330 329 329 331 335 336 331 330 331 331 331
301 302 302 302 302 302 302 302 303 303 303 303 303 303 303 302 301 301 303 304 306 307 307 308 309 309 309 309 308 308 308 308 309 310 311 314 314 311 309 314 319 320 323 331 335 334 335 337 332 329 333 339 336 332 333 335 337 343 348 341 336 343 350 345 343 343 340 339 337 334 337 337 332 330 330 330 332 335 334 334 335 331 330 333 334 332 334
302 302 301 302 302 302 302 302 302 303 303 303 303 303 303 302 301 300 303 304 305 305 306 306 307 306 307 307 307 308 307 308 309 309 309 311 309 308 316 324 321 320 327 332 333 331 331 335 335 331 332 339 338 335 337 341 340 341 346 344 341 343 345 342 342 341 338 339 336 331 334 335 329 331 337 339 340 340 335 333 333 333 333 335 335 336 337
302 302 302 302 302 302 302 302 302 303 303 303 303 303 303 303 301 301 303 303 303 304 305 306 306 306 307 307 307 308 307 307 309 309 308 309 307 308 317 322 318 320 327 330 330 330 328 329 330 329 331 336 337 335 339 342 339 337 341 346 347 345 341 340 344 343 340 342 339 331 333 333 329 331 338 338 336 335 334 334 335 335 336 335 335 337 336
301 302 302 302 302 302 302 302 302 303 303 303 303 303 303 303 302 302 303 302 302 303 304 304 304 304 305 304 304 305 306 306 307 308 308 309 308 307 310 310 310 317 324 325 328 330 327 327 329 329 330 334 336 335 336 339 339 338 337 338 341 342 340 342 346 342 337 339 340 334 332 331 329 330 331 331 333 334 335 336 337 337 337 336 336 335 332
301 301 302 302 302 302 302 302 303 303 303 303 303 303 303 302 302 302 302 301 301 302 302 302 303 303 303 303 304 305 306 307 308 308 308 308 307 307 308 308 310 316 320 320 324 328 327 327 328 328 330 334 334 334 336 338 339 338 336 336 337 336 336 342 348 344 337 335 335 332 330 329 329 330 329 330 334 336 335 336 336 336 336 334 334 334 332
302 302 302 302 302 302 302 303 303 303 303 303 303 303 302 303 303 302 301 300 301 302 303 303 304 304 303 304 305 305 306 308 310 310 310 309 308 308 309 310 311 316 317 317 319 321 324 326 326 326 331 333 332 333 336 337 336 335 337 340 338 333 332 338 342 342 344 343 338 333 331 330 329 328 329 329 332 333 334 335 335 334 334 333 332 333 331
302 302 302 302 302 302 302 303 303 303 303 303 303 303 303 302 302 302 300 300 301 303 304 304 304 304 304 305 305 306 306 308 310 310 310 311 310 310 311 311 311 313 314 314 316 318 321 326 327 325 327 329 331 333 334 334 334 335 336 338 337 333 333 337 339 341 346 346 338 332 330 329 328 328 327 328 329 330 331 332 332 332 332 332 332 331 331
302 302 302 302 302 302 302 303 303 303 303 303 303 303 302 302 302 301 300 300 302 303 303 304 304 303 304 305 305 306 307 308 309 309 310 311 312 312 312 312 312 312 312 313 314 314 317 323 326 324 323 326 329 332 333 333 333 334 336 335 331 330 333 336 337 339 339 336 333 332 333 332 330 328 328 327 327 328 328 328 329 329 329 329 329 329 330
302 302 302 302 302 302 302 303 303 303 303 303 302 302 302 302 301 300 300 301 302 304 305 306 306 305 304 304 305 306 308 309 310 311 311 312 313 313 313 313 314 313 312 312 312 313 316 321 324 325 325 325 326 329 332 332 332 334 336 332 328 330 334 335 335 337 337 335 334 333 336 336 333 329 327 326 325 325 326 326 326 326 326 326 326 327 327
302 302 302 302 302 302 302 303 303 303 302 302 302 302 302 301 301 300 300 301 302 304 305 306 306 305 304 305 306 308 309 310 312 312 313 312 312 313 313 313 314 314 312 311 311 315 320 322 322 323 325 324 326 329 331 331 333 334 332 328 327 329 331 332 334 335 333 332 331 330 331 332 329 326 326 325 323 323 324 323 323 323 324 325 325 325 326
302 302 302 302 302 302 302 302 303 303 302 303 302 301 301 303 302 300 301 302 303 304 305 305 306 306 306 307 308 309 310 311 312 313 313 313 312 312 312 312 312 312 311 310 310 315 320 319 317 320 323 323 326 331 332 333 335 334 329 324 324 325 326 328 332 331 326 324 325 325 324 323 323 323 324 323 321 322 322 321 322 322 322 323 324 324 325
302 302 302 302 302 302 302 302 302 302 302 302 301 301 303 306 304 301 302 304 305 305 305 305 306 306 306 306 307 309 310 311 312 313 312 312 311 311 310 310 310 310 310 310 310 312 316 315 313 315 318 317 322 331 334 334 334 331 326 323 323 324 326 327 327 326 323 321 321 321 320 320 321 321 321 321 321 321 321 321 321 321 321 322 322 322 323
302 302 302 302 302 302 302 302 302 302 302 302 300 301 304 307 306 304 304 306 306 305 304 305 305 306 306 306 307 310 312 312 313 313 313 312 312 311 309 309 309 309 310 310 310 312 315 315 314 315 315 315 321 329 331 332 332 328 324 322 322 323 324 324 323 322 323 323 323 322 321 321 321 321 320 320 320 320 320 321 320 320 320 321 321 321 322
302 302 302 302 302 302 302 302 302 302 302 302 301 301 303 305 306 306 306 306 306 305 304 304 305 306 307 307 308 310 313 313 314 314 314 312 311 311 309 309 309 310 310 311 312 313 315 315 315 316 315 314 320 327 328 327 328 326 322 322 322 321 322 323 323 324 325 325 325 325 324 323 323 323 322 321 321 321 321 321 321 320 320 320 320 320 320
302 302 302 302 302 302 302 302 302 302 302 302 300 300 301 303 305 306 306 306 306 305 304 304 306 307 307 308 309 311 312 314 314 313 313 312 311 309 309 310 310 311 312 312 313 313 314 313 314 315 315 316 321 328 328 324 323 323 322 321 322 322 322 323 324 324 326 325 325 324 323 321 322 323 322 322 321 321 321 321 321 320 320 320 320 320 319
303 303 302 302 302 302 301 301 302 302 301 300 300 301 302 303 305 306 306 306 305 305 304 304 306 307 307 309 313 315 312 312 313 312 311 312 311 310 311 311 310 311 313 313 312 313 314 315 315 317 319 318 320 325 326 323 321 321 320 319 319 319 320 321 321 322 322 322 322 321 321 320 320 321 321 321 320 321 320 320 320 320 320 320 320 320 320
302 302 302 302 301 301 301 301 301 301 300 301 303 304 305 305 306 306 307 306 305 305 306 306 307 307 308 312 318 318 312 310 311 311 312 312 311 312 312 311 311 312 313 312 311 313 315 317 319 321 321 320 321 324 324 322 321 320 319 318 317 317 317 317 318 318 319 318 319 319 319 319 318 316 315 316 317 318 318 318 318 319 320 320 321 320 320
302 302 302 301 301 301 302 301 301 301 303 305 306 306 306 307 307 307 307 307 306 305 305 306 308 309 310 313 316 315 312 312 312 310 311 313 313 313 313 313 314 314 312 312 316 318 318 319 322 322 321 321 322 321 320 319 319 318 318 318 318 318 318 317 316 316 316 316 316 317 316 316 316 315 315 316 317 317 317 318 318 319 319 320 320 320 320
302 302 301 301 302 303 304 304 303 304 306 306 307 306 307 307 307 307 306 306 306 305 305 306 307 308 308 310 311 310 311 315 314 311 311 313 314 313 314 317 320 318 314 316 321 322 320 320 322 322 323 322 322 321 320 320 320 319 318 318 317 318 318 318 317 317 317 317 317 317 317 317 317 318 318 319 319 319 319 319 320 320 320 320 321 320 320
301 301 301 302 303 305 305 305 305 305 306 306 306 306 306 306 306 306 306 306 306 306 305 305 306 305 305 307 309 309 311 314 315 314 315 314 314 314 315 317 319 318 317 319 321 320 321 322 322 322 322 322 321 321 321 320 321 321 320 320 319 318 318 318 318 319 319 320 320 319 319 319 320 320 320 320 321 321 321 321 321 321 321 321 321 321 321
301 302 303 303 304 305 305 305 305 306 306 306 306 306 306 307 307 308 307 307 308 307 306 306 306 305 305 308 310 309 309 312 315 317 317 315 314 314 315 315 317 318 320 321 320 320 323 324 323 322 322 321 321 321 321 320 321 321 321 321 321 321 320 320 320 320 320 320 321 321 320 320 320 320 321 321 321 321 321 321 321 321 321 321 321 321 320
302 303 304 304 305 305 305 305 306 306 306 306 306 306 306 307 308 309 309 309 309 309 308 308 308 306 306 308 309 310 311 313 315 316 318 318 316 315 317 317 318 321 323 322 319 321 324 324 323 323 323 321 321 320 320 320 320 320 320 321 321 321 321 321 321 321 321 321 321 321 321 321 321 321 321 322 322 322 322 321 321 321 321 320 320 320 320
303 303 304 304 305 306 306 306 306 307 306 306 307 307 307 307 308 308 309 310 312 311 309 309 309 309 309 308 307 309 312 313 312 314 318 319 317 317 320 319 317 321 323 320 318 322 325 324 323 324 322 320 320 320 319 319 319 319 320 321 321 320 321 321 321 321 321 321 321 321 321 321 322 322 322 322 322 321 321 321 321 320 320 320 320 320 320
303 303 304 305 306 306 306 306 306 307 307 306 307 308 307 306 306 307 308 310 312 311 309 309 310 311 311 309 308 310 312 312 312 313 317 317 315 317 323 323 319 320 321 318 319 324 326 323 322 323 321 320 320 319 318 317 317 318 319 320 320 320 320 320 320 320 320 320 320 321 321 322 322 321 322 321 321 321 321 320 320 320 320 319 320 320 320
303 304 305 306 305 305 306 306 306 307 308 308 306 306 307 309 309 308 309 310 310 309 309 310 310 310 311 311 311 311 312 312 312 313 316 316 314 316 322 323 319 318 318 318 319 323 324 323 322 322 321 320 319 319 317 316 316 317 318 318 319 319 320 319 320 320 320 320 320 320 320 321 321 321 321 321 320 320 320 319 319 319 319 319 319 319 319
304 304 305 305 305 305 306 307 305 305 308 310 308 307 308 309 310 310 311 311 311 310 311 311 311 311 312 313 313 313 313 312 312 313 315 315 316 318 319 318 316 316 318 318 318 320 322 322 321 321 320 320 319 319 317 316 315 315 315 316 317 318 319 319 319 319 319 319 319 318 318 319 319 319 319 320 319 319 319 318 318 318 318 318 318 318 319
304 304 305 306 305 305 306 307 306 306 308 310 310 308 307 307 310 311 312 311 310 311 312 312 312 312 313 312 312 313 313 313 315 316 316 317 318 317 314 314 317 320 321 320 319 321 322 322 320 320 320 320 320 319 318 317 316 315 315 315 316 316 316 317 317 317 317 317 317 317 317 318 318 318 318 318 318 318 318 317 317 317 317 317 317 318 319
305 304 304 305 306 305 306 307 308 308 307 308 307 307 306 307 308 310 310 310 310 311 312 312 312 313 314 314 313 312 312 314 315 315 314 316 316 313 312 315 319 321 321 321 320 321 321 320 319 320 320 320 320 319 318 318 317 316 316 316 315 315 315 315 315 316 316 316 316 317 317 317 317 317 317 317 317 317 317 317 316 316 316 316 317 318 319
304 303 304 305 307 306 306 307 307 306 306 307 307 307 308 308 308 309 311 311 311 311 312 312 312 313 313 313 313 312 311 314 316 314 313 316 316 314 314 318 319 318 319 320 320 320 320 319 319 320 320 320 320 319 318 318 318 318 317 317 316 315 315 315 315 316 316 316 316 316 316 316 316 316 316 316 316 316 316 316 315 316 316 316 316 317 318
304 304 305 306 307 306 306 306 305 304 305 307 308 309 309 309 310 311 312 311 311 312 312 312 313 315 314 313 314 314 312 313 314 312 312 315 317 315 316 319 319 317 317 319 319 319 319 318 318 320 320 320 319 319 318 318 318 318 317 317 317 316 315 315 315 315 316 316 315 315 315 316 316 316 316 316 316 316 316 316 316 316 317 317 316 316 317
304 305 305 305 305 305 304 304 304 304 306 307 309 309 310 310 310 311 311 311 312 312 311 310 312 315 313 311 314 316 314 312 313 314 314 316 316 315 317 320 320 318 318 319 319 319 319 319 319 320 320 319 319 319 318 317 318 317 317 317 316 316 316 316 315 315 316 315 315 315 315 316 315 315 314 315 315 316 317 317 317 317 317 317 317 317 317
304 305 305 305 306 306 305 304 306 308 309 308 308 309 310 310 309 310 312 311 311 312 312 311 311 313 312 312 315 317 313 311 315 318 318 317 316 317 320 321 321 319 318 318 319 319 320 319 320 320 320 319 319 319 318 317 317 317 316 316 316 316 316 316 316 316 316 315 315 315 315 314 314 313 312 312 313 314 316 317 317 318 318 317 317 317 317
304 304 304 305 307 307 307 307 308 309 309 308 308 308 309 309 309 310 312 311 311 313 315 312 311 314 315 315 314 313 311 312 316 319 318 316 317 319 321 320 318 317 317 318 318 319 320 320 320 320 320 319 319 319 318 317 317 316 316 316 316 316 316 316 316 316 316 315 315 315 314 314 313 312 312 312 312 312 313 314 315 316 317 316 315 314 314
304 305 305 306 306 307 307 307 308 308 308 309 309 309 309 309 309 310 311 311 312 314 313 311 313 317 317 313 310 311 313 315 317 318 317 317 317 318 318 317 316 317 318 319 319 320 319 319 319 319 319 318 318 318 318 317 316 316 316 316 316 316 315 315 315 316 316 315 315 315 315 314 314 313 313 312 312 311 312 312 313 314 315 315 314 314 313
Wind_Speed
25 25 25 25 26 26 23 22 22 23 28 29 27 27 22 11 11 13 9 13 14 6 2 3 2 3 4 5 4 5 3 2 3 3 2 3 4 4 3 4 5 5 5 5 5 5 4 5 7 5 4 5 8 14 17 12 7 6 5 7 8 5 3 5 5 4 4 7 5 1 3 4 3 4 4 6 7 7 7 5 4 4 3 3 2 3 6
24 24 24 24 25 26 24 22 21 21 24 27 27 24 19 16 19 14 3 4 6 3 2 3 3 3 5 5 5 7 6 3 4 4 2 3 3 2 3 5 5 5 5 5 6 6 4 4 5 4 4 4 8 16 17 11 5 7 8 7 8 5 2 4 4 3 4 5 5 4 3 3 4 4 4 6 7 6 3 2 3 5 6 7 5 4 6
23 23 23 23 23 25 24 22 21 19 20 22 23 20 16 14 13 8 2 2 5 6 1 0 2 3 3 4 4 5 5 6 9 10 6 6 6 3 4 6 6 5 5 5 7 7 5 3 3 2 3 4 7 9 11 8 5 12 17 16 14 8 4 5 7 6 6 7 6 6 5 3 3 3 6 8 9 10 5 2 4 6 5 6 6 5 6
24 22 22 22 23 24 24 23 21 18 17 19 19 16 11 7 4 5 6 5 3 5 1 4 2 3 3 3 4 3 2 4 10 11 8 10 10 6 6 7 5 5 6 6 7 7 6 5 3 3 3 3 4 6 13 10 6 10 14 16 12 3 3 7 10 11 10 9 9 7 5 5 5 6 8 9 9 11 8 5 6 6 4 4 6 6 6
24 21 21 21 22 23 23 23 22 17 15 16 16 13 7 2 1 2 5 6 3 1 3 7 4 3 3 2 3 3 3 2 5 6 6 8 8 5 6 7 6 5 6 5 6 6 6 6 6 7 6 4 4 9 13 8 4 8 5 17 11 2 4 8 10 14 15 14 13 9 7 7 8 9 10 10 9 11 10 7 7 7 6 5 8 6 8
23 21 21 22 22 22 21 22 23 18 13 12 12 9 4 3 3 4 3 3 2 1 5 7 5 4 3 2 3 3 3 2 2 3 4 5 4 4 3 7 9 9 8 6 5 6 6 7 7 6 6 4 3 7 9 5 3 11 1 11 8 3 5 6 8 12 15 14 12 9 8 7 8 9 10 10 9 11 12 11 10 10 8 10 9 9 10
21 20 21 21 21 21 20 20 23 20 13 11 10 6 3 4 6 6 5 3 4 7 10 10 7 5 4 4 3 3 4 3 2 2 4 5 4 4 2 5 8 8 8 5 4 5 6 7 7 6 6 3 0 2 5 4 5 10 5 2 2 3 5 5 9 11 14 14 12 9 9 8 7 8 9 9 9 12 13 12 10 10 10 10 8 12 13
19 18 18 19 19 20 20 20 22 21 14 11 7 4 3 4 4 6 7 6 9 11 9 6 5 4 4 3 3 3 3 1 5 5 3 3 3 1 2 6 7 6 7 7 7 9 8 8 7 6 6 4 2 1 3 3 5 8 3 1 1 2 4 2 6 6 10 11 12 10 10 10 11 13 12 9 8 8 9 8 5 5 8 7 4 8 10
18 17 17 18 18 19 19 19 19 18 15 12 8 4 4 5 3 4 6 5 6 7 5 3 3 3 3 2 2 5 3 4 8 7 7 8 6 2 3 7 7 5 7 7 7 6 4 6 8 6 6 7 4 5 4 1 4 7 3 1 2 1 2 2 4 2 6 7 9 11 9 8 10 13 13 10 7 6 7 6 6 7 7 6 4 5 9
17 18 17 17 17 17 17 16 15 14 13 13 11 7 6 5 2 3 3 4 4 4 4 2 2 2 1 2 4 4 6 7 8 6 6 9 10 4 6 6 5 5 5 4 4 10 12 13 15 12 13 15 8 6 3 0 1 3 3 2 1 2 1 2 2 2 6 7 8 8 5 4 6 9 11 11 9 7 5 4 6 9 8 7 7 8 9
17 17 17 16 15 15 14 13 12 11 11 13 13 10 9 6 3 3 3 4 3 3 2 2 2 1 3 6 7 7 8 9 7 4 4 5 9 12 14 10 5 4 4 7 16 21 20 17 16 15 14 16 13 4 4 6 4 5 2 1 3 2 2 0 2 3 6 7 3 4 4 5 7 6 8 11 11 12 10 7 7 8 5 4 6 7 5
18 17 17 16 15 13 11 10 10 10 11 12 12 11 10 7 5 5 4 4 3 2 2 3 4 4 7 9 9 9 9 10 10 10 9 10 16 21 17 7 2 4 10 22 29 24 13 7 7 8 8 8 8 3 7 7 10 8 4 3 3 2 0 1 1 2 4 3 4 4 6 8 7 4 3 7 11 14 11 4 3 5 5 6 7 8 7
19 18 17 16 15 13 11 10 10 10 10 11 12 12 11 8 6 5 6 5 4 3 3 6 9 12 13 11 9 10 13 14 17 17 14 12 13 16 13 5 4 11 22 30 27 15 5 1 0 1 2 1 2 3 1 4 11 11 4 4 4 3 2 1 1 2 2 1 3 5 7 5 4 2 2 2 3 7 8 3 2 4 5 6 7 8 8
20 19 18 17 15 14 12 11 11 10 10 10 12 12 11 10 7 7 7 5 4 6 5 5 7 8 7 7 7 9 12 13 13 12 10 10 10 10 12 12 13 19 24 22 15 6 2 1 2 0 1 2 2 1 1 4 8 9 6 2 2 3 2 0 2 1 2 1 2 4 2 2 2 2 2 3 3 5 7 4 4 5 3 5 6 6 6
20 19 18 18 17 15 13 12 11 11 10 10 12 13 11 10 8 8 8 6 5 7 8 8 5 3 4 6 8 7 8 7 7 8 10 11 9 9 13 18 18 19 17 10 4 2 3 1 0 1 0 0 3 2 0 1 4 6 4 2 2 2 2 2 3 2 2 3 0 1 0 2 5 4 3 2 2 4 6 5 3 3 2 1 4 5 5
20 18 17 18 18 16 14 13 12 12 11 11 12 13 10 8 7 8 9 10 6 4 5 7 4 6 7 10 11 7 5 3 4 6 7 6 8 13 20 21 15 13 13 5 0 3 2 1 1 2 3 3 4 2 2 3 1 3 3 3 4 3 2 3 2 2 1 4 3 3 4 4 5 6 4 1 1 3 5 5 3 3 6 5 2 5 4
19 18 17 17 17 15 14 14 13 12 12 11 12 12 10 8 8 10 11 11 9 10 15 16 15 14 9 7 8 5 4 5 5 3 3 5 9 15 23 23 14 14 14 6 1 3 2 2 1 1 3 3 3 3 3 5 4 0 2 4 3 4 4 3 2 2 1 2 2 3 3 2 3 4 6 9 7 1 6 5 3 4 6 5 3 4 6
18 17 17 16 16 15 15 14 12 12 12 11 11 13 10 8 9 11 12 11 8 11 17 17 15 13 6 3 5 5 5 7 5 2 5 7 5 10 20 19 10 11 14 7 2 3 2 1 1 1 3 4 1 3 3 4 6 5 2 2 3 3 2 2 1 1 2 1 1 2 3 3 3 7 12 13 6 4 5 5 5 6 5 9 11 5 9
18 17 17 16 16 16 15 14 14 13 12 11 12 13 10 8 9 11 13 13 11 12 15 12 10 13 12 11 14 13 11 11 7 4 4 3 5 17 21 11 3 6 8 5 2 2 1 1 1 2 1 4 1 1 2 3 4 4 6 4 1 2 1 2 1 1 2 2 2 2 2 1 7 16 18 9 3 3 4 4 2 4 4 16 20 14 17
17 17 17 16 16 16 15 15 14 12 11 11 12 13 11 9 10 11 13 12 12 19 27 27 26 29 26 19 18 17 14 10 7 3 2 4 11 20 13 1 3 7 4 2 2 2 1 2 2 1 0 2 2 1 2 2 1 2 6 7 4 3 1 2 1 1 1 1 2 0 3 3 15 19 12 4 3 6 7 6 5 5 11 20 22 19 22
17 16 16 15 15 15 14 14 14 12 12 12 11 13 12 9 8 11 13 12 11 15 20 18 16 18 18 16 18 20 18 17 14 11 10 14 15 10 2 2 7 5 1 2 2 1 1 2 2 1 0 1 1 1 1 2 2 1 2 5 5 5 4 2 2 1 1 1 3 1 5 7 17 14 4 4 4 9 14 13 10 12 18 24 25 24 27
16 16 15 14 14 14 13 13 13 12 12 11 11 12 12 10 8 11 14 16 17 21 24 23 21 24 26 27 28 29 28 29 28 25 22 21 16 10 9 11 10 5 2 1 1 1 2 2 1 1 1 1 2 2 1 1 1 3 2 2 3 3 3 3 2 2 3 4 5 5 4 5 14 13 9 10 12 14 16 17 18 18 20 25 27 26 29
15 15 14 13 13 13 12 12 11 11 10 10 11 12 12 11 11 11 15 18 21 26 33 35 34 35 34 27 22 20 20 21 21 22 24 20 14 12 14 14 9 5 2 0 2 2 1 2 1 1 0 1 1 2 2 0 1 2 1 1 1 2 4 3 2 3 4 3 3 5 3 7 13 13 11 14 19 18 19 23 25 23 23 26 27 25 27
14 14 13 12 12 12 11 11 11 11 10 9 11 12 12 12 11 11 14 15 15 18 23 24 25 26 23 17 15 14 15 14 12 12 15 18 15 9 8 9 6 3 3 1 1 3 4 3 1 2 1 1 1 1 3 2 2 2 2 2 3 4 7 4 3 5 4 2 2 6 6 6 10 12 13 17 20 21 23 26 26 24 26 28 26 25 24
13 12 12 12 11 11 11 10 10 10 9 9 11 11 11 12 11 12 12 10 8 8 8 11 19 20 15 16 17 15 12 12 11 10 12 18 23 18 10 5 3 5 6 3 2 2 1 1 2 3 2 3 1 1 2 2 2 1 2 2 2 3 6 4 3 2 1 5 6 4 4 5 10 13 14 16 18 20 21 23 24 24 26 26 24 24 23
11 11 11 11 10 10 9 9 9 9 9 10 11 11 12 13 11 12 13 10 8 9 7 9 17 18 15 18 19 14 12 13 15 16 16 17 20 20 16 12 11 10 9 6 4 3 1 2 3 3 0 3 2 1 2 2 3 1 2 1 3 5 5 3 4 2 1 6 9 8 3 3 7 12 14 13 15 19 20 20 21 22 23 23 23 23 22
10 9 10 10 9 8 8 7 8 9 9 10 11 11 13 14 12 13 13 9 6 7 5 6 16 24 27 25 17 10 11 13 13 14 16 16 15 16 17 17 17 15 11 7 5 4 1 1 1 3 4 3 4 3 2 3 3 0 2 3 5 3 2 2 3 4 3 3 5 6 4 3 3 9 14 13 14 19 20 20 20 21 21 21 21 21 19
9 8 8 9 8 7 7 7 8 8 9 10 11 12 14 15 14 13 12 10 10 10 8 12 23 30 29 22 11 5 8 11 12 13 15 15 14 15 16 16 17 17 14 8 4 3 2 1 2 4 5 3 3 2 2 3 2 2 2 6 6 2 2 1 4 4 1 2 3 4 5 7 7 11 14 14 15 19 21 21 23 23 21 21 21 21 20
8 7 6 7 8 7 7 7 7 8 9 9 11 13 13 12 11 10 11 11 11 12 13 17 20 18 17 15 10 6 7 10 12 14 15 15 15 15 15 15 16 16 14 8 4 3 3 3 4 3 4 4 3 1 2 1 1 2 5 10 10 4 1 1 6 4 5 9 15 15 15 17 17 17 17 17 19 22 23 23 25 25 24 24 24 24 23
6 6 5 6 6 6 6 7 7 8 8 9 10 11 8 5 4 9 13 11 6 5 8 9 9 12 19 21 13 4 5 8 11 15 16 16 16 15 14 14 14 14 12 8 5 4 3 5 5 4 5 7 4 2 1 0 2 2 7 13 13 10 9 11 14 13 11 14 22 28 29 29 27 26 25 24 24 25 25 24 24 25 24 23 24 24 23
5 5 5 5 5 5 6 6 7 8 8 8 8 7 4 1 3 10 12 9 4 4 8 7 10 15 20 17 10 5 3 6 9 13 14 14 14 14 13 13 12 12 10 8 6 5 4 5 3 2 4 6 3 2 1 2 2 2 8 13 15 16 19 23 27 28 22 17 20 27 30 27 26 27 27 26 25 25 25 24 23 21 20 20 21 21 19
4 5 5 5 4 5 5 6 7 8 9 9 9 8 6 1 5 11 11 8 6 8 8 6 7 8 7 9 12 10 5 6 7 8 10 11 11 11 12 12 11 10 9 7 5 4 4 4 4 3 4 2 1 2 3 3 2 1 6 14 19 20 21 21 19 19 17 11 11 17 21 20 18 18 17 17 17 17 17 17 16 15 15 16 17 17 16
4 4 5 5 5 5 6 7 8 8 10 11 9 8 8 6 6 10 11 10 10 11 7 4 3 2 5 11 14 9 2 3 5 7 7 8 9 9 11 13 12 9 7 6 4 3 4 4 3 1 4 6 4 3 3 4 4 5 10 16 21 21 20 16 9 6 7 7 8 11 15 17 17 16 14 14 15 14 13 13 11 9 10 12 13 15 14
3 3 4 5 5 6 7 7 8 9 10 9 6 2 4 4 4 5 7 10 10 8 5 4 3 2 6 11 9 6 7 4 5 7 5 6 10 9 8 10 9 6 7 7 4 2 3 2 1 2 4 7 6 4 3 4 6 9 13 18 24 25 22 18 13 10 11 13 14 17 19 20 20 18 16 16 16 14 13 11 9 8 10 12 14 14 13
3 3 4 5 5 6 7 8 9 8 7 4 1 3 4 4 3 3 3 5 6 4 3 3 4 2 4 6 3 5 12 8 4 7 4 6 10 9 7 6 4 3 6 6 3 1 2 3 4 3 3 4 5 4 2 4 4 6 10 15 20 22 21 19 17 17 18 19 20 20 20 19 17 16 14 13 12 9 8 8 8 8 11 14 14 13 13
3 4 4 5 6 7 7 5 5 4 2 2 2 3 3 4 3 3 4 6 6 5 3 3 2 2 2 2 3 7 13 9 0 4 5 6 7 8 7 5 2 3 5 3 1 2 4 5 5 3 3 3 3 3 5 6 7 7 8 9 10 13 17 18 18 17 18 18 17 17 17 17 16 14 12 11 9 8 8 9 9 10 12 14 13 13 13
4 4 5 5 5 5 3 1 0 1 1 0 1 2 4 5 5 5 8 9 9 10 8 3 3 4 4 3 4 7 9 6 3 0 3 4 4 5 5 2 2 3 3 3 2 3 8 10 7 4 3 4 5 8 11 11 10 10 12 12 10 12 17 19 18 17 18 18 16 15 15 16 15 13 12 11 10 9 10 11 12 12 12 12 12 12 13
3 4 3 3 4 2 0 0 1 3 2 1 1 2 4 5 4 5 6 6 5 7 8 5 5 6 5 4 5 8 7 4 4 2 1 2 2 2 2 1 2 3 2 3 2 4 7 7 5 4 5 6 10 13 14 13 13 14 15 15 14 13 14 14 14 14 15 16 15 14 14 15 15 13 12 12 11 10 11 11 10 10 10 10 10 10 11
3 3 3 3 3 2 1 2 4 4 3 3 3 3 2 3 2 2 3 4 3 4 6 5 6 7 6 4 6 9 6 3 3 3 1 1 1 1 1 0 1 1 2 2 2 3 4 2 2 4 4 3 7 11 12 13 14 15 15 15 15 15 14 14 13 13 15 16 15 13 13 13 13 12 11 10 9 10 9 8 8 8 8 9 9 9 10
4 4 4 5 4 2 2 4 4 3 2 2 2 2 1 2 3 2 2 2 2 3 6 5 6 9 9 7 5 5 3 2 3 2 2 2 2 2 2 0 0 2 3 1 3 4 3 3 2 3 3 1 4 7 11 13 13 13 12 13 14 14 14 15 15 15 16 16 14 13 13 12 12 11 11 10 9 9 8 8 7 7 7 8 8 8 9
6 6 6 6 5 2 2 3 3 2 2 1 1 1 1 2 3 3 2 1 1 3 5 4 3 4 6 8 8 7 4 5 4 2 0 2 4 4 2 0 1 3 3 1 3 2 3 3 2 2 2 3 4 7 11 13 13 13 12 12 12 12 12 13 14 13 12 12 12 12 12 11 11 11 10 9 9 9 8 7 7 7 7 8 8 8 8
8 8 7 6 5 4 2 2 1 1 1 1 0 1 1 1 2 2 2 2 2 1 3 3 4 5 5 5 7 7 5 6 5 2 1 2 4 4 2 1 1 3 2 2 3 1 2 3 3 2 2 4 6 10 13 15 15 14 13 12 12 12 12 13 13 13 12 12 12 11 10 9 9 9 9 8 9 9 8 7 8 8 8 9 8 8 9
7 7 7 6 5 5 3 2 2 1 0 1 1 2 1 2 2 1 1 2 4 3 0 4 7 7 5 3 4 6 7 6 5 3 2 2 3 2 2 2 2 2 1 1 2 3 3 3 3 2 2 5 8 11 13 15 16 17 17 17 16 15 14 13 14 14 13 13 12 11 9 9 8 8 7 7 8 9 9 9 9 10 10 10 10 10 10
5 5 5 4 4 4 3 2 2 2 1 1 1 1 1 2 2 1 2 4 5 5 4 6 8 6 2 1 2 4 6 5 4 4 3 3 3 2 2 2 1 1 1 2 2 2 2 3 3 4 5 7 9 11 13 14 16 18 19 19 19 17 16 15 15 14 14 14 13 12 11 10 9 8 8 9 10 10 10 10 11 11 11 11 11 11 11
5 5 4 3 3 4 3 2 2 2 1 1 0 0 0 1 2 2 3 5 6 6 9 12 11 8 5 5 3 2 2 3 4 4 1 1 3 2 1 1 1 1 2 3 2 1 1 3 3 4 6 7 9 11 13 14 15 17 18 18 18 18 18 17 17 17 16 15 14 14 13 12 11 11 10 11 11 10 10 11 11 12 12 12 11 11 11
6 6 5 2 2 4 3 1 2 1 0 1 2 3 3 4 6 6 7 9 10 11 13 14 13 9 6 4 1 2 1 1 3 2 2 1 2 1 1 2 2 2 3 2 2 2 2 2 2 3 5 7 9 11 12 13 13 14 15 16 16 17 17 17 17 18 17 17 16 15 15 14 14 12 11 11 11 11 11 11 12 12 13 13 13 12 12
5 5 4 1 1 3 2 1 2 3 4 6 7 7 6 6 7 8 11 13 15 16 15 12 9 6 3 1 2 2 2 3 3 1 3 2 2 1 2 3 3 2 2 2 2 2 1 1 2 3 5 7 8 9 9 10 11 11 12 14 14 15 15 16 17 17 17 17 17 16 16 15 14 13 12 11 11 11 11 11 11 12 12 12 12 12 11
5 4 4 2 1 1 2 3 6 8 7 7 8 11 11 9 9 12 15 15 15 14 12 8 4 2 2 4 3 1 2 4 3 0 1 2 2 2 3 3 2 2 2 2 1 1 1 2 2 3 5 5 6 7 7 9 10 10 11 12 13 14 14 14 15 15 16 16 16 16 15 14 13 13 13 12 12 11 11 11 11 12 11 11 10 10 10
7 5 4 3 1 1 5 8 8 7 8 11 14 18 20 17 16 18 19 17 13 9 6 5 3 2 2 4 3 2 2 3 2 1 1 3 2 1 1 2 2 2 2 0 1 1 1 3 5 5 5 4 5 6 6 7 9 10 11 12 12 13 12 11 11 11 12 13 14 14 13 12 12 13 13 13 13 13 12 12 11 11 12 12 11 11 10
8 6 5 5 2 4 9 9 5 4 10 17 19 20 21 21 21 23 22 17 11 7 5 5 6 4 2 3 3 3 2 2 2 2 3 3 1 1 2 3 2 1 1 1 1 2 3 5 6 5 4 4 5 5 5 6 7 8 9 10 10 11 11 9 8 7 7 8 10 11 11 11 11 12 13 13 13 12 12 12 12 12 12 12 12 12 12
7 5 5 6 5 6 9 7 3 2 6 11 14 17 18 20 22 23 21 16 13 10 5 3 3 3 3 4 3 1 2 2 2 2 2 2 1 2 3 2 0 0 1 2 3 4 5 5 4 3 2 2 3 4 4 5 5 5 7 8 8 9 10 9 6 3 3 4 6 7 8 9 9 10 11 11 10 9 9 10 11 11 11 11 12 12 12
6 5 5 7 10 12 12 8 4 5 9 13 16 18 19 20 22 23 20 18 16 10 4 3 2 3 3 2 1 1 1 3 3 2 2 2 2 2 2 2 1 2 4 4 4 4 4 4 3 2 1 1 1 2 3 4 3 3 4 6 6 8 10 10 8 4 1 1 3 4 5 5 6 6 7 8 8 8 7 8 9 10 9 9 10 11 11
Wind_Direction
309 313 316 319 322 324 326 328 334 340 338 338 342 341 341 333 308 314 300 277 291 314 292 277 275 242 262 281 272 261 265 227 236 261 229 212 223 213 219 212 203 225 218 196 207 212 214 218 203 215 247 216 223 248 250 237 198 168 201 218 196 166 144 183 222 274 269 266 282 236 161 150 185 242 199 172 190 189 186 192 181 191 199 144 137 235 265
308 312 314 316 320 322 325 327 331 342 343 341 342 339 334 319 308 311 313 281 286 249 227 261 256 269 280 285 278 261 255 243 234 242 233 218 209 214 238 213 205 221 207 199 211 201 206 235 222 224 229 226 254 262 262 255 208 188 204 187 174 192 191 168 192 250 256 262 286 271 227 175 195 221 186 180 184 163 136 102 159 212 212 169 167 225 250
307 311 312 315 318 319 323 325 328 339 344 339 338 334 329 324 312 304 333 306 238 213 216 5 254 298 309 290 277 256 250 242 232 229 230 230 218 215 247 232 220 221 206 213 227 209 198 231 278 275 213 254 283 285 292 290 223 220 218 184 165 186 200 166 181 206 216 216 223 226 213 194 217 207 181 190 181 166 161 127 172 228 231 166 170 210 247
305 307 309 313 316 316 320 321 323 334 341 337 335 331 326 331 315 304 330 334 235 216 22 43 11 336 347 306 271 231 232 251 238 228 227 236 226 214 239 240 236 239 226 231 242 230 212 214 255 277 255 269 269 302 319 304 245 250 230 182 153 157 198 188 191 200 208 210 215 212 165 158 207 211 191 194 190 179 170 143 178 202 178 181 212 199 208
303 304 306 310 314 315 318 319 320 329 341 339 334 329 320 302 301 335 338 335 329 295 36 41 24 319 322 308 279 254 241 270 257 226 222 242 228 210 231 226 218 225 216 222 238 229 222 224 235 246 247 257 270 309 316 282 266 329 227 173 150 97 212 209 203 208 214 213 211 199 166 172 196 199 198 200 193 178 170 182 199 166 142 231 252 194 186
302 303 305 308 312 314 316 319 319 325 341 343 334 326 297 263 308 354 355 311 314 355 343 351 337 294 290 276 277 289 263 260 283 249 267 283 228 193 237 226 217 218 208 210 225 215 222 237 236 229 230 245 289 321 314 270 353 11 18 177 153 141 213 210 201 221 230 226 219 194 177 196 199 191 200 200 186 175 181 202 199 159 171 228 228 182 193
302 303 305 307 310 312 315 320 320 322 338 350 339 319 283 272 292 315 331 306 283 292 302 311 305 284 283 265 255 284 272 266 317 309 312 312 249 198 234 245 236 234 224 217 216 203 203 226 234 221 216 222 91 352 311 294 10 25 13 247 129 157 227 208 187 222 239 233 231 205 185 212 225 213 212 204 191 185 192 210 200 179 208 231 196 186 208
301 302 304 305 309 310 312 317 319 321 334 344 334 309 312 321 296 310 332 313 287 289 288 291 299 293 277 253 261 308 292 315 352 319 263 274 287 238 256 277 284 267 239 223 219 217 206 213 228 214 205 209 163 178 257 270 346 3 2 303 41 158 248 236 163 215 248 235 231 221 199 210 229 235 234 219 201 195 203 217 193 181 240 254 175 187 226
298 299 301 303 307 311 312 313 316 322 333 339 336 320 316 318 277 285 321 305 282 290 290 284 302 296 268 253 331 339 321 345 343 304 234 224 245 292 318 297 303 291 248 222 219 241 246 243 255 255 248 249 201 175 204 217 346 341 327 284 353 158 239 338 98 187 257 234 220 224 210 204 232 247 245 228 206 199 206 206 181 179 209 214 159 186 236
296 296 298 300 304 311 314 312 315 325 332 335 337 333 329 331 271 241 290 291 283 299 308 301 271 267 294 4 358 324 297 321 331 299 258 241 235 265 339 321 309 296 265 242 299 313 302 284 280 277 278 286 271 194 187 269 234 283 302 316 328 131 124 3 107 190 265 247 208 201 181 185 243 250 235 221 208 207 217 214 201 191 173 167 187 216 233
295 295 296 297 300 307 312 311 315 322 323 326 332 334 335 337 310 281 282 269 272 304 325 298 256 288 354 353 340 310 293 311 312 281 306 295 271 296 318 318 298 269 268 317 324 314 301 289 287 278 270 282 284 269 30 357 278 231 223 312 325 30 73 305 174 184 266 268 195 142 150 205 239 240 213 206 201 204 213 214 207 202 180 186 229 241 241
291 293 295 296 295 297 301 303 305 310 312 316 323 329 332 329 305 284 266 256 278 333 348 280 259 298 319 315 311 299 288 295 292 275 274 283 286 294 300 298 250 266 311 323 325 323 315 294 287 275 251 254 275 325 39 351 301 277 223 212 281 314 79 235 163 160 268 300 94 141 216 229 243 263 201 199 197 192 190 185 199 214 220 241 261 259 242
285 287 288 290 290 291 291 290 291 297 302 305 310 319 323 319 297 265 257 267 274 273 282 279 273 279 285 284 284 287 286 289 290 281 266 262 277 289 291 280 261 296 316 321 324 334 353 336 294 236 220 127 17 14 63 280 300 305 271 199 216 235 214 194 147 164 256 320 134 200 239 249 256 304 51 106 149 145 135 114 262 238 215 209 232 254 248
282 284 284 285 285 284 282 281 281 286 290 291 299 312 319 313 291 259 255 263 265 271 282 288 285 281 276 279 292 299 300 300 299 294 280 271 271 277 290 300 303 309 318 320 320 341 65 15 8 7 317 41 65 2 272 265 288 291 278 263 191 184 167 185 274 236 171 175 235 246 290 314 265 309 33 91 109 133 139 150 218 230 211 189 212 264 263
282 281 282 282 280 277 276 276 274 276 281 281 287 301 314 309 285 257 252 258 274 284 264 241 254 337 351 320 316 314 310 314 318 312 304 295 281 279 304 318 322 325 329 322 311 16 89 96 69 162 294 150 183 205 92 240 269 268 273 336 53 140 164 184 232 259 118 115 284 297 35 212 223 248 245 148 126 171 160 139 170 231 318 207 199 234 234
283 281 282 281 277 273 271 271 269 268 272 274 280 293 308 303 273 249 252 261 270 280 242 217 247 334 333 309 304 301 289 303 329 314 308 315 308 307 320 330 339 351 353 344 35 58 75 150 173 186 206 191 181 193 159 156 245 312 319 355 56 65 60 124 131 320 75 129 163 204 194 205 233 255 261 309 329 203 152 118 157 250 338 358 179 203 197
284 282 281 280 278 275 271 271 270 265 265 269 274 284 298 299 270 248 253 260 255 258 263 265 279 296 302 297 299 297 286 304 324 323 306 316 313 318 329 337 353 15 13 10 62 46 74 158 124 183 231 220 163 169 166 146 144 153 327 336 12 35 19 47 60 331 297 144 181 218 206 228 273 281 298 315 318 146 119 119 193 269 338 26 119 184 155
281 279 278 277 276 275 274 274 273 266 263 265 270 276 290 297 269 246 251 264 262 264 271 272 274 274 255 253 297 309 318 315 321 336 299 287 288 324 330 329 341 12 16 25 48 22 50 150 166 165 246 281 173 167 192 166 157 153 122 5 346 4 23 47 89 325 324 315 216 245 255 254 287 309 310 316 337 89 127 179 232 297 350 84 98 110 126
277 276 276 274 272 272 272 272 272 266 260 260 266 273 281 287 268 247 248 260 261 262 266 262 258 264 267 281 290 287 291 295 290 304 305 265 327 335 328 316 323 359 3 30 56 19 21 307 322 128 226 299 331 159 235 194 163 143 131 131 309 303 8 33 80 83 356 317 236 267 253 253 342 327 317 327 54 150 206 207 263 319 64 97 93 91 101
276 275 273 271 270 270 270 268 267 266 264 261 264 270 275 279 271 250 244 256 268 271 271 268 266 269 272 277 279 279 282 282 275 291 275 260 322 337 339 353 14 350 349 45 47 14 342 289 314 53 126 288 305 316 293 268 220 155 147 152 172 182 153 349 314 140 57 309 296 244 191 297 339 333 325 9 95 174 164 121 86 82 95 93 89 89 94
276 274 272 271 269 267 266 266 263 262 263 261 261 268 273 276 263 242 242 260 277 278 276 272 263 261 261 265 274 278 275 268 265 273 281 284 302 327 3 283 314 322 2 39 23 6 343 284 273 337 19 298 297 292 308 313 313 328 134 152 164 165 165 206 223 159 103 252 279 223 206 297 338 347 1 35 65 136 133 117 104 98 93 91 89 88 88
274 273 272 271 269 267 265 263 260 258 259 259 261 266 268 269 260 244 249 262 266 262 263 267 270 272 270 272 277 278 274 273 273 271 269 274 282 271 257 283 298 276 255 2 89 130 323 288 253 44 27 301 307 319 320 170 245 312 351 127 168 176 171 173 179 154 152 190 239 258 248 341 8 19 33 48 73 101 110 107 102 95 91 92 91 89 89
273 272 270 268 268 266 262 261 261 257 256 257 260 263 268 274 272 264 263 268 270 270 271 274 277 280 279 277 278 278 272 269 269 263 254 252 263 268 257 259 271 274 273 199 150 177 200 215 219 44 277 233 300 333 321 275 259 302 331 341 320 77 78 68 110 153 150 160 263 292 326 41 46 48 58 73 85 89 89 91 91 88 90 93 91 89 89
273 272 272 271 270 266 262 263 263 256 252 258 262 265 272 275 277 281 278 273 274 282 284 279 272 272 279 286 286 280 269 255 253 261 247 231 233 253 254 242 254 312 353 34 198 195 182 186 131 60 317 279 76 10 296 295 308 325 6 334 329 43 51 45 133 146 141 146 284 306 327 43 68 76 82 88 92 92 89 90 90 91 93 93 91 91 90
272 272 271 268 268 269 266 264 265 261 258 263 265 266 271 274 279 285 281 273 277 288 296 290 277 273 284 294 285 276 269 259 256 264 250 232 231 233 230 227 283 328 330 315 258 211 184 148 95 79 336 318 50 115 263 262 263 302 42 48 311 347 7 24 110 128 143 151 170 247 303 53 82 90 89 90 96 98 95 95 96 96 95 94 93 93 90
268 269 270 267 266 269 268 266 270 271 268 269 270 269 273 277 280 277 271 271 278 270 259 277 284 286 298 300 288 275 267 264 258 254 251 247 243 240 243 258 279 298 307 296 265 257 322 64 86 97 279 298 319 271 251 265 283 285 95 79 296 301 322 25 94 93 63 123 150 182 187 62 77 91 90 87 95 99 98 96 94 92 92 93 91 88 86
267 268 269 267 264 264 265 268 272 273 275 277 275 273 276 278 277 272 266 262 266 264 250 269 286 297 305 303 293 273 255 247 239 237 240 243 243 241 244 254 266 278 289 288 262 245 214 96 120 152 177 252 294 295 241 261 287 315 98 357 342 337 316 1 89 142 167 135 161 178 147 89 85 100 97 96 99 100 98 94 90 88 88 89 89 87 85
265 268 270 271 269 264 266 272 274 277 284 283 277 278 282 280 275 266 251 234 237 253 274 294 296 300 306 306 295 257 240 230 218 220 228 235 241 242 241 247 258 266 271 272 258 234 193 163 184 170 169 209 261 261 235 262 312 58 36 343 351 35 237 305 103 133 215 55 116 140 106 87 79 86 96 100 99 98 98 94 91 93 92 90 89 86 81
261 261 263 268 267 265 269 275 279 284 286 286 290 294 290 280 267 244 219 213 229 252 278 298 300 296 301 308 302 261 232 224 219 222 226 229 234 238 240 246 253 253 253 256 256 241 228 233 233 213 196 201 200 213 255 284 40 50 349 344 355 16 289 97 101 86 24 65 94 98 88 83 81 84 91 92 88 90 92 88 86 88 88 86 85 81 78
262 260 260 260 259 263 271 277 284 288 285 291 304 305 296 284 243 208 198 194 205 260 290 300 299 296 302 307 307 265 209 215 221 227 230 229 229 231 233 240 246 246 245 248 249 254 269 262 254 250 242 229 203 145 224 227 86 39 360 6 24 54 74 85 98 96 76 78 92 95 90 86 87 89 88 85 84 85 82 78 78 80 80 82 82 79 77
261 259 263 262 260 271 279 280 286 289 288 296 302 291 284 353 160 187 190 183 187 309 315 291 279 295 302 303 306 303 261 224 217 225 229 228 227 228 228 230 237 239 237 233 233 248 269 261 253 285 269 241 202 124 105 103 93 19 12 31 51 71 83 94 104 105 97 83 81 86 85 82 83 83 77 74 78 80 76 72 71 71 75 79 78 76 75
259 256 261 265 272 286 290 285 286 285 285 290 283 263 263 288 168 185 196 211 257 305 317 296 284 295 294 304 321 321 278 215 205 216 222 221 219 218 217 219 228 237 236 226 218 236 251 242 245 288 310 283 167 102 62 64 88 44 44 62 72 80 90 99 104 105 103 89 66 69 69 66 71 76 70 65 69 71 71 72 69 68 74 77 74 73 71
267 266 273 281 290 294 288 282 284 284 285 290 285 262 258 257 202 192 207 234 271 296 300 279 292 297 275 305 329 351 28 198 198 194 202 209 207 202 204 212 221 228 224 214 212 245 259 249 243 293 27 39 59 88 57 37 60 84 79 80 85 89 96 101 92 65 68 65 58 70 78 79 82 86 87 85 85 83 85 88 85 79 77 70 65 63 59
289 289 290 288 286 284 280 281 284 284 284 292 298 253 225 232 213 202 219 236 259 280 273 249 266 294 294 303 322 18 24 354 201 188 193 199 197 194 189 196 204 207 208 215 233 265 268 275 339 49 28 17 27 65 68 37 58 79 82 85 91 93 94 96 94 86 87 92 99 105 108 106 101 96 94 93 92 91 90 85 75 67 65 60 55 50 43
315 300 288 283 284 289 290 288 287 287 292 309 24 129 167 184 168 152 207 235 247 255 252 249 248 270 317 311 307 6 4 355 206 195 188 176 187 192 174 160 172 198 200 205 218 283 305 355 33 37 354 356 27 56 35 359 30 74 92 98 99 97 94 91 91 94 98 103 108 113 114 111 103 94 88 84 79 77 78 73 59 54 58 56 50 41 34
312 296 290 293 301 305 302 293 283 292 327 29 88 139 186 206 200 204 239 257 256 249 262 288 265 253 307 300 285 331 349 356 29 189 180 163 178 193 178 147 144 191 173 160 157 355 17 43 59 43 353 9 40 37 26 26 34 58 88 106 117 119 115 109 104 100 97 95 97 102 102 97 92 88 88 86 80 74 73 68 56 48 48 46 38 29 24
303 302 307 313 318 318 315 319 17 5 7 14 176 205 230 241 246 248 253 260 256 246 244 253 260 254 252 248 286 322 335 344 356 266 178 162 161 178 173 143 160 175 125 66 64 66 57 62 76 75 46 53 59 53 56 61 58 57 73 93 117 131 127 122 120 118 113 107 103 102 98 93 93 92 89 85 79 67 59 54 46 39 38 35 28 20 15
314 324 330 332 330 331 24 184 300 315 319 286 271 274 250 237 242 248 242 237 241 239 231 227 249 258 239 228 283 309 316 320 341 7 140 149 130 165 174 126 148 158 92 52 80 80 60 54 62 75 69 57 54 58 64 71 74 73 79 91 105 114 118 121 125 126 117 106 99 96 91 88 88 83 77 74 70 61 56 51 42 35 31 24 16 10 2
340 343 347 342 335 321 285 290 294 297 299 288 278 276 237 208 217 244 218 203 214 226 214 216 247 250 223 222 286 304 304 299 329 358 68 100 44 90 146 135 114 102 83 74 40 45 59 57 41 67 76 41 36 55 67 72 77 80 84 91 96 99 101 103 104 103 98 93 91 88 83 81 81 80 77 77 71 63 56 46 34 26 17 7 360 354 347
355 349 340 335 339 329 285 287 286 282 282 263 242 242 233 224 225 207 179 187 230 213 200 214 257 256 238 232 262 296 311 297 300 330 32 20 9 39 73 139 40 66 77 54 349 17 73 102 57 61 80 19 13 55 72 76 80 82 83 87 90 92 93 93 90 88 88 89 88 84 76 74 78 81 81 78 71 64 55 41 29 21 10 4 3 358 352
357 352 338 330 337 346 292 279 280 279 267 231 212 249 279 241 234 214 189 228 272 215 206 222 274 268 243 228 229 245 292 325 311 277 100 10 4 33 65 268 348 63 79 350 318 7 72 90 79 75 59 16 34 67 76 76 77 78 80 86 91 90 89 87 84 81 80 80 79 78 77 77 80 81 79 73 64 58 52 43 36 30 25 22 18 10 5
344 339 334 335 347 356 338 313 320 311 265 177 266 302 255 232 262 247 212 237 279 223 199 226 270 288 283 263 249 258 297 340 338 312 133 27 13 41 75 310 14 71 94 268 291 5 75 83 88 87 36 33 62 77 75 71 71 73 74 77 79 77 75 74 73 71 69 67 68 71 73 76 77 76 69 58 50 46 42 36 31 29 26 23 18 13 12
345 340 342 348 358 3 355 343 346 349 43 92 32 350 348 342 329 299 220 285 329 8 115 251 282 302 310 306 295 295 304 323 342 10 55 30 4 38 64 30 30 79 100 332 359 48 72 82 98 110 78 67 75 78 75 72 73 73 70 67 66 66 67 71 73 72 67 64 65 68 70 70 68 62 51 41 38 39 36 30 24 21 19 17 14 13 12
349 343 344 341 343 352 351 336 341 3 25 50 56 55 2 329 315 325 343 328 337 360 343 299 301 322 340 220 252 287 297 319 7 36 31 2 2 38 64 44 22 44 61 56 53 43 44 66 90 106 100 88 82 78 75 74 73 71 68 65 65 66 68 70 70 69 66 65 65 66 67 66 61 53 45 39 36 34 31 26 23 21 19 17 17 15 15
360 351 352 346 341 353 4 351 349 3 13 351 356 119 334 284 249 253 316 314 307 324 329 318 313 312 291 258 239 238 282 345 35 45 5 359 34 31 11 113 110 61 54 68 70 35 53 74 80 91 98 93 81 73 70 68 66 67 67 65 64 63 63 63 63 61 60 59 57 58 60 60 57 52 46 40 35 31 28 26 26 25 22 21 21 21 20
17 9 15 32 354 357 11 17 354 4 6 289 290 274 261 257 256 273 309 317 312 320 327 321 311 301 279 252 169 84 27 30 51 28 349 53 79 33 1 63 71 42 45 65 53 41 71 78 46 64 86 84 73 68 67 64 63 65 65 64 62 60 58 57 55 54 51 49 49 51 51 51 51 50 47 44 42 41 38 35 33 30 26 24 24 24 24
17 7 18 60 359 353 7 32 325 315 298 294 303 311 307 296 302 326 338 328 318 323 329 321 302 288 289 354 58 43 24 54 76 356 333 35 89 50 24 57 63 39 49 61 39 28 58 67 36 63 80 77 69 67 68 67 65 64 63 62 60 58 55 53 51 49 47 45 44 44 44 44 44 46 47 48 48 47 45 42 36 32 28 25 24 25 26
11 7 21 42 28 347 344 329 322 320 314 310 329 350 359 355 350 357 355 338 325 328 333 323 297 284 4 19 42 47 6 33 67 150 302 39 69 32 24 53 66 51 55 64 24 325 229 193 143 110 99 89 81 77 71 64 61 59 61 62 59 55 52 50 47 46 45 42 41 41 42 42 43 43 44 46 46 45 42 39 35 33 33 32 30 29 30
25 27 33 45 105 301 324 317 304 316 356 13 14 13 13 8 2 2 1 353 346 344 341 340 5 38 350 347 25 58 15 12 41 74 22 45 69 80 61 67 65 54 57 71 258 251 186 156 141 133 123 103 88 77 65 59 57 58 61 61 56 51 49 47 45 46 45 42 42 44 45 46 48 48 46 45 44 42 40 38 37 36 37 36 36 35 33
32 39 43 45 31 327 331 330 312 336 10 14 13 10 8 3 2 5 6 4 7 25 36 29 35 46 9 355 34 49 15 6 44 55 38 42 60 86 71 71 74 105 168 198 197 139 130 133 135 136 128 98 79 68 57 54 57 60 62 60 54 47 42 38 37 41 43 42 44 49 52 53 53 49 45 42 39 37 37 39 39 39 39 39 38 36 33
29 38 35 30 14 337 332 335 326 327 349 353 356 360 2 2 2 5 8 15 31 47 46 7 360 21 32 37 42 16 330 4 43 51 42 35 24 44 66 74 63 222 124 101 88 93 101 105 112 121 111 73 59 51 42 42 51 60 61 58 52 46 40 36 33 37 44 45 48 50 49 49 49 46 44 42 37 33 35 38 38 40 41 40 37 33 30
26 12 355 359 2 358 351 343 331 333 345 354 1 6 9 9 9 9 15 29 41 44 21 340 27 61 56 37 18 331 12 32 36 29 33 40 33 46 85 126 126 59 66 66 61 67 79 80 78 78 53 22 26 25 19 23 36 57 57 52 48 44 40 39 40 40 49 83 67 48 35 33 32 29 30 33 31 29 29 30 30 31 32 29 26 25 22